Regional Weather Roundup
Issued by NWS

Home | Current Version | Previous Version | Graphics & Text | Print | Product List | Glossary On
Versions: 1 2 3 4 5 6 7 8 9 10 11 12 13 14 15 16 17 18 19 20 21 22 23 24 25 26 27 28 29 30 31 32 33 34 35 36 37 38 39 40 41 42 43 44 45 46 47 48 49 50
000
ASUS43 KIND 210409
RWRIN

WEATHER ROUNDUP FOR INDIANA
NATIONAL WEATHER SERVICE INDIANAPOLIS IN
1100 PM EST SAT JAN 20 2018

NOTE: "FAIR" INDICATES FEW OR NO CLOUDS BELOW 12,000 FEET WITH NO
SIGNIFICANT WEATHER AND/OR OBSTRUCTIONS TO VISIBILITY.

* - STATION DOES NOT REPORT WEATHER SUCH AS PRECIPITATION OR FOG.

+ - STATION NOT QUALITY CONTROLLED BY THE NATIONAL WEATHER SERVICE.
    USE DATA WITH CAUTION...ESPECIALLY DEWPOINT AND RELATIVE
    HUMIDITY OBSERVATIONS.

INZ001>003-010>013-019-020-210500-
NORTHWEST INDIANA

CITY           SKY/WX    TMP DP  RH WIND       PRES   REMARKS
GARY /AIRPORT/ CLOUDY    41  36  81 VRB3      30.02R
KNOX *+        CLOUDY    36  34  93 S5        30.02S WCI  32
LA PORTE +     CLOUDY    36  34  93 S5        30.02S WCI  32
MICHIGAN CITY+ CLOUDY    37  36  93 S3        30.02S
MONTICELLO +   CLOUDY    38  35  87 S7        30.03S WCI  33
RENSSELAER +   CLOUDY    37  32  81 S6        30.03S WCI  33
VALPARAISO     CLOUDY    37  34  89 S5        30.02  WCI  33

$$

LMZ046-743>745-210500-
SOUTHERN LAKE MICHIGAN

STATION/POSITION TIME  TEMP    WIND        PRES    WAVE
                       AIR SEA DIR/SP/G            HT
                 (UTC) (F)     (DEG/KT/KT) (MB)    (FT)
BURNS HARBOR     0340   39     180/  8/ 10 1016.6F
MICHIGAN CITY    0340   38     160/  9/ 11   N/A

$$

INZ004-005-014>016-021>024-210500-
NORTH CENTRAL INDIANA

CITY           SKY/WX    TMP DP  RH WIND       PRES   REMARKS
GOSHEN         CLOUDY    37  34  89 S9        30.03S WCI  30
LOGANSPORT +   CLOUDY    36  34  93 S6        30.05S WCI  31
PERU/GRISSOM   CLOUDY    39  39 100 S9        30.03F WCI  33
ROCHESTER +    MOCLDY    39  36  87 S5        30.04S WCI  36
SOUTH BEND     CLOUDY    36  34  92 S6        30.02F WCI  31
WARSAW +       CLOUDY    36  34  93 CALM      30.04S

$$

INZ006>009-017-018-025>027-210500-
NORTHEAST INDIANA

CITY           SKY/WX    TMP DP  RH WIND       PRES   REMARKS
AUBURN +       CLOUDY   N/A N/A N/A S5        30.05S HAZE
FORT WAYNE     DRIZZLE   38  36  92 S6        30.06S FOG     WCI  33
HUNTINGTON +   CLOUDY    37  36  96 CALM      30.05S FOG
KENDALLVILLE + CLOUDY    36  36  99 S7        30.04R FOG     WCI  30

$$

INZ028-029-035-036-043>045-051>053-210500-
WEST CENTRAL INDIANA

CITY           SKY/WX    TMP DP  RH WIND       PRES   REMARKS
CRAWFORDSVL +  CLOUDY    37  37 100 MISG      30.05  FOG
GREENCASTLE +  CLOUDY    41  41 100 S5        30.06S FOG
LAFAYETTE      CLOUDY    39  37  92 VRB3      30.04S
TERRE HAUTE    CLOUDY    40  38  93 S5        30.06S FOG     WCI  37

$$

INZ030>032-037>040-046>048-054>057-064-065-210500-
CENTRAL INDIANA

CITY           SKY/WX    TMP DP  RH WIND       PRES   REMARKS
FISHERS *+     CLOUDY    39  39 100 S5        30.07F WCI  36
FRANKFORT +    CLOUDY    40  39  97 S7        30.06S FOG     WCI  36
GREENWOOD *+   CLOUDY   N/A N/A N/A CALM      30.08S
INDIANAPOLIS   DRIZZLE   40  40 100 SE6       30.07F FOG     WCI  36
-EAGLE CREEK   FOG       41  40  96 S3        30.06F VSB 1
MARION +       CLOUDY    37  36  95 CALM      30.06F FOG
MT COMFORT *+  CLOUDY    37  37 100 S6        30.07F WCI  33
SHELBYVILLE    LGT RAIN  39  37  92 S6        30.07F VSB 1/2 WCI  35
ZIONSVILLE +   DRIZZLE   38  38 100 S6        30.06S WCI  33

$$

INZ033-034-041-042-049-050-058-059-210500-
EAST CENTRAL INDIANA

CITY           SKY/WX    TMP DP  RH WIND       PRES   REMARKS
MUNCIE         CLOUDY    41  38  89 S7        30.07S FOG
RICHMOND +     FOG       36  36 100 S5        30.09F VSB 1/2 WCI  32

$$

INZ060-061-067>069-081>083-085>088-210500-
SOUTHWEST INDIANA

CITY           SKY/WX    TMP DP  RH WIND       PRES   REMARKS
EVANSVILLE     CLOUDY    46  39  76 S8        30.09S
HUNTINGBURG +  CLOUDY    44  39  82 S8        30.09S
WASHINGTON +   CLOUDY    40  35  81 CALM      30.07R

$$

INZ062-063-066-070>080-084-089>092-210500-
SOUTH CENTRAL AND SOUTHEAST INDIANA

CITY           SKY/WX    TMP DP  RH WIND       PRES   REMARKS
BATESVILLE *+    N/A    N/A N/A N/A MISG        N/A
BEDFORD +      CLOUDY    45  39  81 S5        30.07F
BLOOMINGTON    CLOUDY    43  40  89 S8        30.06S
FRENCH LICK *+ CLOUDY    46  39  76 SW9       30.08S
MADISON *+     CLOUDY    45  41  87 S5        30.11F
NORTH VERNON + CLOUDY    43  41  93 S3        30.10S
SEYMOUR +      CLOUDY    45  43  93 CALM      30.09S

$$




USA.gov is the U.S. government's official web portal to all federal, state and local government web resources and services.